C/2021 O3 ( PanSTARRS )

Japanese version
Home page
Updated on September 18, 2021

---------------------------------------------------------------------

* Profile

Discovery Date July 26, 2021
Magnitude 19.8 mag
Discoverer Pan-STARRS 1 telescope (Haleakala)

* Pictures

* Orbital Elements

Epoch 2022 Apr. 11.0 TT = JDT 2459680.5
T 2022 Apr. 21.00291 TT                                 Rudenko
q   0.2872008            (2000.0)            P               Q
z  -0.0007220      Peri.  299.99521     -0.56797454     -0.81255235
 +/-0.0002231      Node   189.00632     +0.64608496     -0.53878203
e   1.0002074      Incl.   56.81340     -0.50988151     +0.22242439
From 178 observations 2021 July 26-Aug. 31, mean residual 0".4.

* Finding Charts

* Magnitudes Graph

        m1 = 10.0 + 5 log d + 10.0 log r

---------------------------------------------------------------------

The orbital elements are published on M.P.E.C. 2021-R75.
The charts are made with StellaNavigator Ver.10 (AstroArts).
The magnitudes graphs are made with Comet for Windows.

---------------------------------------------------------------------

Copyright(C) Seiichi Yoshida (comet@aerith.net). All rights reserved.